一网星座-0095星 (ONEWEB-0095 )

导读 | 星芒AI

ONEWEB-0095 是 OneWeb 卫星通信公司发射的低轨通信卫星之一,属于其全球宽带互联网星座计划的一部分。该卫星运行在约 1200 公里的近地轨道,旨在为全球偏远地区提供高速互联网接入。它采用先进的通信技术,支持多频段传输,提高网络覆盖与连接效率。ONEWEB-0095 的发射进一步增强了 OneWeb 的卫星网络能力,助力其实现全球无缝通信的目标。

基本信息
目录编号:
45436
目录名称:
ONEWEB-0095
国际标识:
2020-020N
轨道中心:
EARTH
卫星名称:
一网星座-0095星
卫星全名:
一网星座-0095星 (ONEWEB-0095 )
卫星状态:
在轨 (已飞行2037 天)
发射日期:
2020-03-21 UTC
国别 :
英国 (GB)
星等 :
--
轨道信息
数据来源 国际轨道数据 AOE轨道数据
星历时间 2025-10-18T05:08:25+0800
9小时前
查看轨道信息
2025-10-13T03:00:00+0800
5天前
查看轨道信息
半长轴 7595.817km 7595.807km
偏心率 0.0002065 0.0002285
轨道倾角 87.882° 87.882°
近地点辐角 77.588° 66.333°
升交点赤经 69.321° 70.336°
平近点角 282.548° 40.865°
近地点 1216.113km 1215.936km
远地点 1219.251km 1219.408km
周期 109.805分钟 109.805分钟
每日圈数 13.114179 13.114204
详细信息
平衡模式:
三轴稳定
覆盖范围:
全球
运营商:
一网卫星公司
运营商所在国:
英国
制造商(研发单位):
一网卫星公司
制造商所在国:
英国
使用方式:
暂无
卫星简介
OneWeb卫星网络由648颗重约125公斤的微型卫星组成,运行在1200公里的轨道上。 每颗卫星都能够提供至少每秒8千兆位的吞吐量,以使用其高吞吐量的Ku频段有效载荷为家庭和移动平台提供互联网接入。该卫星仍在工作。
2D轨道图
3D轨道图
轨道高度分析图
轨道倾角分析图
轨道综合分析图
查看轨道综合分析图